Weather History for Owosso, MI

Change the Weather History Date:

Wednesday, October 10, 2012

  Actual Average (KFNT) Record (KFNT)
Temperature  
Mean Temperature 44 °F 51 °F  
Max Temperature 55 °F 62 °F 85 °F (1949)
Min Temperature 34 °F 41 °F 26 °F (1993)
Degree Days  
Heating Degree Days 20 14  
Month to date heating degree days 124  
Since 1 July heating degree days 334  
Cooling Degree Days 0 0  
Month to date cooling degree days 2  
Year to date cooling degree days 528  
Moisture  
Dew Point 35 °F    
Average Humidity 72    
Maximum Humidity 99    
Minimum Humidity 44    
Precipitation  
Precipitation 0.00 in 0.09 in 1.50 in (1921)
Month to date precipitation 0.91  
Year to date precipitation 25.22  
Snow  
Snow 0.00 in 0.00 in T in (1979)
Month to date snowfall 0.1  
Since 1 July snowfall 0.1  
Since 1 September snowfall 0.1  
Snow Depth -    
Sea Level Pressure  
Sea Level Pressure 29.94 in    
Wind  
Wind Speed 11 mph (West)    
Max Wind Speed 22 mph    
Max Gust Speed 31 mph    
Visibility 10 miles    
Events Rain    
T = Trace of Precipitation, MM = Missing Value Source: NWS Daily Summary

Daily Weather History Graph

Daily Weather History Graph

Search for Another Location

Airport:

Trip Planner

Search our weather history database for the weather conditions in past years. The results will help you decide how hot, cold, wet, or windy it might be!

Date:

Astronomy

Oct. 10, 2012 Rise Set
Actual Time 7:44 AM EDT 7:01 PM EDT
Civil Twilight 7:16 AM EDT 7:29 PM EDT
Nautical Twilight 6:43 AM EDT 8:02 PM EDT
Astronomical Twilight 6:10 AM EDT 8:35 PM EDT
Moon 2:12 AM EDT (10/10) 4:10 PM EDT (10/10)
Length of Visible Light 12h 13m
Length of Day
11h 16m
Waning Crescent, 27% of the Moon is Illuminated
Oct 10
Waning Crescent
Oct 15
New
Oct 21
First Quarter
Oct 29
Full
Nov 6
Last Quarter

Hourly Weather History & Observations

Time (EDT) Temp. Windchill Dew Point Humidity Pressure Visibility Wind Dir Wind Speed Gust Speed Precip Events Conditions
12:15 AM 55.0 °F - 36.9 °F 50% 29.76 in 10.0 mi South 10.4 mph - N/A   Clear
12:35 AM 55.2 °F - 37.2 °F 51% 29.76 in 10.0 mi South 12.7 mph 17.3 mph N/A   Mostly Cloudy
12:55 AM 55.8 °F - 37.6 °F 51% 29.76 in 10.0 mi SSW 9.2 mph 18.4 mph N/A   Overcast
1:15 AM 55.4 °F - 40.8 °F 58% 29.78 in 10.0 mi NW 20.7 mph 25.3 mph N/A   Overcast
1:35 AM 50.2 °F - 41.9 °F 73% 29.79 in 10.0 mi WNW 12.7 mph 21.9 mph N/A   Overcast
1:55 AM 48.9 °F - 41.7 °F 76% 29.80 in 10.0 mi NW 12.7 mph 19.6 mph N/A   Overcast
2:15 AM 46.8 °F - 41.9 °F 83% 29.81 in 10.0 mi NW 11.5 mph - N/A Rain Light Rain
2:36 AM 45.9 °F 42.9 °F 44.1 °F 93% 29.82 in 7.0 mi WNW 5.8 mph - N/A Rain Rain
2:55 AM 45.1 °F 39.1 °F 44.1 °F 96% 29.83 in 5.0 mi WNW 12.7 mph - N/A Rain Rain
3:15 AM 44.6 °F 39.7 °F 43.5 °F 96% 29.83 in 5.0 mi WNW 9.2 mph - N/A   Unknown
3:36 AM 44.1 °F 40.1 °F 43.0 °F 96% 29.83 in 4.0 mi West 6.9 mph - N/A   Unknown
3:55 AM 43.7 °F 39.7 °F 43.0 °F 97% 29.83 in 5.0 mi West 6.9 mph - N/A   Unknown
4:15 AM 43.5 °F 41.9 °F 43.0 °F 98% 29.82 in 7.0 mi WSW 3.5 mph - N/A   Overcast
4:35 AM 43.2 °F 39.7 °F 42.8 °F 99% 29.82 in 7.0 mi SW 5.8 mph - N/A   Overcast
4:55 AM 42.8 °F 38.6 °F 42.3 °F 98% 29.83 in 10.0 mi West 6.9 mph - N/A   Overcast
5:15 AM 42.8 °F 38.6 °F 42.1 °F 97% 29.83 in 10.0 mi WSW 6.9 mph - N/A   Overcast
5:35 AM 42.4 °F 38.1 °F 41.9 °F 98% 29.83 in 10.0 mi West 6.9 mph - N/A   Overcast
5:55 AM 42.1 °F 38.4 °F 41.7 °F 99% 29.83 in 10.0 mi WSW 5.8 mph - N/A   Overcast
6:16 AM 41.9 °F 38.2 °F 41.4 °F 98% 29.83 in 10.0 mi SW 5.8 mph - N/A   Overcast
6:35 AM 41.9 °F 37.5 °F 41.5 °F 99% 29.84 in 10.0 mi WSW 6.9 mph - N/A   Overcast
6:55 AM 42.1 °F 37.7 °F 41.9 °F 99% 29.84 in 10.0 mi SW 6.9 mph - N/A   Overcast
7:16 AM 42.1 °F 38.4 °F 41.5 °F 98% 29.85 in 10.0 mi WSW 5.8 mph - N/A   Overcast
7:35 AM 42.3 °F 37.3 °F 41.5 °F 97% 29.85 in 10.0 mi WSW 8.1 mph - N/A   Overcast
7:55 AM 42.1 °F 38.4 °F 41.4 °F 97% 29.85 in 10.0 mi SW 5.8 mph - N/A   Overcast
8:15 AM 42.1 °F 37.7 °F 41.2 °F 97% 29.86 in 10.0 mi WSW 6.9 mph - N/A   Overcast
8:55 AM 43.0 °F 38.2 °F 41.9 °F 96% 29.87 in 10.0 mi WSW 8.1 mph - N/A   Scattered Clouds
9:35 AM 45.3 °F 40.1 °F 42.8 °F 91% 29.89 in 10.0 mi West 10.4 mph - N/A   Scattered Clouds
9:55 AM 46.6 °F - 42.4 °F 85% 29.89 in 10.0 mi West 12.7 mph - N/A   Scattered Clouds
10:15 AM 46.6 °F - 41.0 °F 81% 29.90 in 10.0 mi West 13.8 mph 23.0 mph N/A   Mostly Cloudy
10:35 AM 46.9 °F - 39.9 °F 77% 29.90 in 10.0 mi West 13.8 mph - N/A   Mostly Cloudy
10:55 AM 46.9 °F - 39.2 °F 74% 29.91 in 10.0 mi West 11.5 mph 21.9 mph N/A   Overcast
11:15 AM 48.4 °F - 37.2 °F 65% 29.91 in 10.0 mi West 20.7 mph 27.6 mph N/A   Overcast
11:35 AM 46.8 °F - 36.0 °F 66% 29.92 in 10.0 mi West 12.7 mph 25.3 mph N/A   Overcast
11:56 AM 46.8 °F - 36.1 °F 67% 29.93 in 10.0 mi West 17.3 mph 21.9 mph N/A   Overcast
12:15 PM 46.6 °F - 35.4 °F 65% 29.93 in 10.0 mi West 13.8 mph 21.9 mph N/A   Overcast
12:55 PM 45.7 °F 39.8 °F 34.5 °F 65% 29.94 in 10.0 mi West 12.7 mph 21.9 mph N/A   Overcast
1:15 PM 45.7 °F 38.8 °F 35.1 °F 66% 29.94 in 10.0 mi West 16.1 mph - N/A   Overcast
1:35 PM 47.3 °F - 35.8 °F 64% 29.94 in 10.0 mi West 13.8 mph 23.0 mph N/A   Overcast
1:55 PM 47.8 °F - 30.9 °F 52% 29.94 in 10.0 mi West 17.3 mph 27.6 mph N/A   Overcast
2:15 PM 48.4 °F - 32.5 °F 54% 29.94 in 10.0 mi West 21.9 mph - N/A   Overcast
2:36 PM 47.3 °F - 29.1 °F 49% 29.94 in 10.0 mi West 20.7 mph 28.8 mph N/A   Overcast
2:55 PM 47.3 °F - 30.7 °F 53% 29.96 in 10.0 mi West 15.0 mph 24.2 mph N/A   Overcast
3:15 PM 47.7 °F - 30.2 °F 51% 29.96 in 10.0 mi West 16.1 mph 31.1 mph N/A   Overcast
3:35 PM 46.9 °F - 28.2 °F 48% 29.97 in 10.0 mi West 19.6 mph 27.6 mph N/A   Overcast
3:55 PM 46.6 °F - 27.0 °F 46% 29.98 in 10.0 mi West 18.4 mph 28.8 mph N/A   Overcast
4:15 PM 46.4 °F 40.1 °F 25.7 °F 44% 29.99 in 10.0 mi West 15.0 mph 27.6 mph N/A   Overcast
4:35 PM 45.7 °F 37.8 °F 25.3 °F 45% 30.00 in 10.0 mi West 20.7 mph 26.5 mph N/A   Overcast
4:56 PM 45.1 °F 38.4 °F 25.7 °F 47% 30.01 in 10.0 mi West 15.0 mph 26.5 mph N/A   Overcast
5:15 PM 45.3 °F 38.1 °F 26.6 °F 48% 30.01 in 10.0 mi West 17.3 mph 25.3 mph N/A   Overcast
5:35 PM 44.6 °F 37.4 °F 26.6 °F 49% 30.02 in 10.0 mi West 16.1 mph 26.5 mph N/A   Overcast
5:55 PM 44.6 °F 36.6 °F 26.8 °F 50% 30.03 in 10.0 mi West 19.6 mph 24.2 mph N/A   Overcast
6:15 PM 43.7 °F 37.3 °F 26.2 °F 50% 30.03 in 10.0 mi West 12.7 mph 21.9 mph N/A   Overcast
6:36 PM 43.2 °F 36.6 °F 25.7 °F 50% 30.04 in 10.0 mi West 12.7 mph 20.7 mph N/A   Overcast
6:55 PM 42.3 °F 35.9 °F 26.2 °F 53% 30.06 in 10.0 mi West 11.5 mph 16.1 mph N/A   Mostly Cloudy
7:15 PM 41.9 °F 35.9 °F 26.6 °F 55% 30.07 in 10.0 mi West 10.4 mph - N/A   Scattered Clouds
7:35 PM 41.2 °F 36.0 °F 27.7 °F 59% 30.08 in 10.0 mi West 8.1 mph - N/A   Mostly Cloudy
7:55 PM 40.3 °F 35.5 °F 28.4 °F 63% 30.09 in 10.0 mi West 6.9 mph - N/A   Mostly Cloudy
8:15 PM 39.7 °F 34.9 °F 28.4 °F 64% 30.09 in 10.0 mi West 6.9 mph - N/A   Scattered Clouds
8:35 PM 38.7 °F 35.2 °F 28.6 °F 67% 30.10 in 10.0 mi WSW 4.6 mph - N/A   Clear
8:55 PM 37.8 °F 33.3 °F 28.9 °F 71% 30.11 in 10.0 mi WSW 5.8 mph - N/A   Scattered Clouds
9:15 PM 38.3 °F 34.8 °F 29.7 °F 71% 30.11 in 10.0 mi WSW 4.6 mph - N/A   Overcast
9:35 PM 38.1 °F 35.7 °F 29.3 °F 71% 30.12 in 10.0 mi WSW 3.5 mph - N/A   Mostly Cloudy
9:55 PM 37.4 °F 33.8 °F 29.1 °F 72% 30.12 in 10.0 mi WSW 4.6 mph - N/A   Scattered Clouds
10:16 PM 36.0 °F 33.3 °F 28.2 °F 73% 30.12 in 10.0 mi SW 3.5 mph - N/A   Clear
10:35 PM 35.6 °F - 28.4 °F 75% 30.12 in 10.0 mi Calm Calm - N/A   Clear
10:55 PM 34.5 °F - 28.6 °F 79% 30.12 in 10.0 mi Calm Calm - N/A   Clear
11:15 PM 35.2 °F 32.4 °F 28.4 °F 76% 30.13 in 10.0 mi SW 3.5 mph - N/A   Scattered Clouds
11:35 PM 35.6 °F 31.7 °F 28.6 °F 76% 30.13 in 10.0 mi SW 4.6 mph - N/A   Scattered Clouds
11:55 PM 36.3 °F - 28.4 °F 73% 30.14 in 10.0 mi Calm Calm - N/A   Clear